Location: Unspecified
(0.0000°N, 0.0000°E)
Time: 18:22:26
(UTC+00:00)

A-11 Canister half - Visible Passes

Search period start: 23 September 2019 00:00
Search period end: 03 October 2019 00:00
Orbit: 1513 x 1686 km, 47.2° (Epoch: 22 September)

Date Brightness Start Highest point End Pass type
(mag) Time Alt. Az. Time Alt. Az. Time Alt. Az.
23 Sep 11.5 03:41:22 10° SE 03:42:20 10° SE 03:43:18 10° SE visible
23 Sep 9.4 18:28:36 10° NW 18:38:04 68° SW 18:47:57 10° SSE visible
23 Sep 11.3 20:40:17 10° WSW 20:43:41 12° SW 20:47:07 10° SSW visible
24 Sep 9.8 05:15:29 10° SSW 05:25:09 56° SE 05:34:25 10° NE visible
24 Sep 9.4 18:05:39 10° NW 18:15:08 74° SW 18:25:03 10° SSE visible
24 Sep 11.2 20:16:17 10° WSW 20:20:38 14° SW 20:25:04 10° SSW visible
25 Sep 9.9 04:52:37 10° SSW 05:02:12 52° SE 05:11:24 10° ENE visible
25 Sep 11.2 19:52:31 10° WSW 19:57:36 15° SW 20:02:47 10° SSW visible
26 Sep 10.0 04:29:48 10° SSW 04:39:16 47° SE 04:48:21 10° ENE visible
26 Sep 11.2 19:28:54 10° W 19:34:35 17° SW 19:40:24 10° S visible
27 Sep 10.0 04:06:59 10° SSW 04:16:19 44° SE 04:25:18 10° ENE visible
27 Sep 11.2 19:05:23 10° W 19:11:34 19° SW 19:17:54 10° S visible
28 Sep 10.1 03:44:11 10° SSW 03:53:22 40° SE 04:02:12 10° ENE visible
28 Sep 11.2 18:41:57 10° W 18:48:34 21° SW 18:55:22 10° S visible
29 Sep 10.2 03:21:28 10° SSW 03:30:24 37° SE 03:39:04 10° ENE visible
29 Sep 9.3 05:25:48 10° WSW 05:35:13 49° NW 05:44:20 10° NNE visible
29 Sep 11.1 18:18:35 10° W 18:25:34 23° SW 18:32:47 10° S visible
30 Sep 10.3 03:01:26 19° S 03:07:26 34° SE 03:15:54 10° ENE visible
30 Sep 9.2 05:02:42 10° SW 05:12:17 53° NW 05:21:33 10° NNE visible
01 Oct 10.3 02:41:22 26° SSE 02:44:28 31° SE 02:52:43 10° ENE visible
01 Oct 9.1 04:39:42 10° SW 04:49:22 58° NW 04:58:46 10° NNE visible
02 Oct 10.4 02:21:17 28° SE 02:21:29 28° SE 02:29:29 10° ENE visible
02 Oct 9.0 04:19:35 22° SW 04:26:26 64° NW 04:35:57 10° NNE visible
